Regional Weather Roundup
Issued by NWS

Home | Current Version | Previous Version | Text Only | Print | Product List | Glossary On
Versions: 1 2 3 4 5 6 7 8 9 10 11 12 13 14 15 16 17 18 19 20 21 22 23 24 25 26 27 28 29 30 31 32 33 34 35 36 37 38 39 40 41 42 43 44 45 46 47 48 49 50
000
ASHW40 PHFO 271843
RWRHI

WEATHER ROUNDUP FOR HAWAII
NATIONAL WEATHER SERVICE HONOLULU HI
800 AM HST SAT MAY 27 2017

THIS IS AN AUTOMATED REPORT THAT HAS NOT BEEN QUALITY CONTROLLED.

NOTE..."FAIR" INDICATES FEW OR NO CLOUDS BELOW 12,000 FEET WITH NO
SIGNIFICANT WEATHER AND/OR OBSTRUCTIONS TO VISIBILITY.

* - THESE SITES REPORT LIMITED FIELDS

HIZ001>004-271900-
KAUAI-NIIHAU-

CITY           SKY/WX    TMP DP  RH WIND       PRES   REMARKS
LIHUE APT      MOSUNNY   75  66  73 NW3       30.01R
PORT ALLEN*      N/A     73 N/A N/A NE6         N/A
POIPU*           N/A     72 N/A N/A NE2         N/A
PRINCEVILLE*     N/A     73 N/A N/A S2          N/A
KOKOLE POINT*  NOT AVBL
MOLOAA DAIRY*    N/A     73  68  83 W2          N/A
WAIMEA HTS*      N/A     79  64  61 SW3         N/A
PUU OPAE*      NOT AVBL
PUU LUA*       NOT AVBL
MAKAHA RIDGE*    N/A     70  64  83 N1          N/A
$$

HIZ005>011-271900-
OAHU-

CITY           SKY/WX    TMP DP  RH WIND       PRES   REMARKS
HONOLULU       MOSUNNY   74  64  71 NW3       30.01R
KALAELOA       SUNNY     79  62  56 NE5       30.02R
KANEOHE MCB    PTSUNNY   77  68  73 SW3       29.98
WHEELER FIELD  FAIR      72  62  71 CALM      30.01R
BELLOWS*         N/A    N/A N/A N/A NE2         N/A
KAHUKU*          N/A    N/A N/A N/A E3          N/A
WHEELER*         N/A    N/A N/A N/A S2          N/A
WAIANAE HARBOR   N/A    N/A N/A N/A W1          N/A
DILLINGHAM*      N/A     61  48  63 SW3         N/A
KAHUKU TRN*      N/A     66  55  68 W1          N/A
KAWAILOA*        N/A     72  64  78 E3          N/A
KII*             N/A     75  68  78 SE3         N/A
MAKUA RANGE*     N/A     81  63  54 S1G7        N/A
OAHU FOREST NW   N/A     70  63  78 E3          N/A
SCHOFIELD BRK*   N/A     59  46  63 MISG        N/A
SCHOFIELD S*   NOT AVBL
WAIANAE VLY*     N/A     63  48  59 N2          N/A
KUAOKALA*        N/A     75  63  64 N5          N/A
HONOULIUULI*   NOT AVBL
MOKUOLOE IS*   NOT AVBL
PALEHUA*         N/A     72  61  68 NE3         N/A
WAIAWA PHB*    NOT AVBL
$$

HIZ012>013-271900-
MOLOKAI-

CITY           SKY/WX    TMP DP  RH WIND       PRES   REMARKS
MOLOKAI AIRPT  SUNNY     76  64  66 CALM      30.02R
KALAUPAPA      NOT AVBL
MAKAPULAPAI*     N/A     81  64  57 E3          N/A
MOLOKAI 1*       N/A     73  59  60 SE1         N/A
PUU ALII*        N/A     59  53  79 N1          N/A
$$

HIZ016-271900-
KAHOOLAWE-

CITY           SKY/WX    TMP DP  RH WIND       PRES   REMARKS
KAHOOLAWE*     NOT AVBL
HAKIOAWA*        N/A     75  65  70 MISG      30.43S
HONOKANAIA*      N/A     76  63  63 N5        29.94R
KANELOA*         N/A     73  64  73 NE9       30.06R
KEALIALALO*    NOT AVBL
LUA MAKIKA*    NOT AVBL
$$

HIZ014>015-271900-
LANAI-

CITY           SKY/WX    TMP DP  RH WIND       PRES   REMARKS
LANAI CITY     FAIR      72  61  68 SE6       30.06R
LANAI 1*       NOT AVBL
$$

HIZ017>028-271900-
MAUI-

CITY           SKY/WX    TMP DP  RH WIND       PRES   REMARKS
KAHULUI        MOSUNNY   76  64  66 NW5       30.01R
KAPALUA-W MAUI MOSUNNY   77  59  53 CALM      30.02
HANA AIRPORT   CLOUDY    73  68  83 E1        30.06R
HANA*            N/A     70 N/A N/A SE3         N/A
HALEAKALA SUMM   N/A     45  19  36 NW20        N/A
MAALAEA BAY*     N/A     79 N/A N/A N8G14       N/A
HALEAKALA*     NOT AVBL
KAUPO GAP*     NOT AVBL
KULA 1*          N/A     50  34  54 NE3         N/A
$$

HIZ023>026-271900-
BIG ISLAND OF HAWAII COAST AND LOWER SLOPES-

CITY           SKY/WX    TMP DP  RH WIND       PRES   REMARKS
KAILUA KONA    MOSUNNY   78  67  68 SW5       29.99R
HILO           MOSUNNY   76  63  64 CALM      30.02R
HONOKAA*         N/A     75 N/A N/A VRB1        N/A
KAWAIHAE MWT*    N/A     81 N/A N/A W2          N/A
KAWAIHAE*        N/A     77 N/A N/A W3        30.00S
SOUTH POINT*     N/A     73 N/A N/A N10         N/A
UPOLU AIRPORT* NOT AVBL
KAMUELA*       CLEAR     72  55  56 N10       30.16
HAKALAU*         N/A     59  48  67 S3          N/A
KALOKO-HONOKO*   N/A     81  66  61 W5        29.99S
PALI 2*          N/A     72  54  53 W7          N/A
KEALAKOMO*       N/A     81  59  47 E9          N/A
KAUPULEHU*       N/A     79  61  53 W5          N/A
KAPAPALA*        N/A     73  62  68 SW2         N/A
LOWER KAHUKU*    N/A     63  52  67 N3          N/A
PUHE CS*         N/A     79  63  57 S2          N/A
PUHO CS*         N/A     82  65  55 N2          N/A
PTA KEAMUKU*     N/A     70  52  52 CALM        N/A
WAIKOLOA*        N/A     79  55  44 N3          N/A
$$

HIZ027>028-271900-
BIG ISLAND OF HAWAII INTERIOR AND SUMMMITS-

CITY           SKY/WX    TMP DP  RH WIND       PRES   REMARKS
BRADSHAW FIELD SUNNY     59  40  48 CALM      30.30R
MK VISITOR CEN   N/A     48  34  57 SW7         N/A
MAUNA KEA*       N/A     37  -6  15 CALM        N/A
MAUNA LOA*       N/A     43   0  16 MISG        N/A
MAUNA LOA 1*   NOT AVBL
PTA KIPUKA*      N/A     61  48  63 W2          N/A
PTA RANGE 17*    N/A    N/A N/A N/A NW1         N/A
PTA WEST*        N/A     64  50  59 S1G8        N/A
NENE CABIN*      N/A     55  39  54 SE3G9       N/A
AHUMOA*          N/A     58  49  73 N6          N/A
PTA PORTABLE*  NOT AVBL
PUU MALI*        N/A     57  48  72 NW3         N/A
$$

HIC003-271900-
NORTHWEST ISLANDS-

CITY           SKY/WX    TMP DP  RH WIND       PRES   REMARKS
MIDWAY ISLAND  CLOUDY    70  55  60 NE9       30.23R
MIDWAY NOS*      N/A     70 N/A N/A MISG      30.22R
FRENCH FRIGATE NOT AVBL
$$

PHZ110>124-180-271900-
BUOY REPORTS

STATION/POSITION TIME  TEMP    WIND        PRES    WAVE   SWELL
                       AIR SEA DIR/SP/G            HT/PER HT/DIR
                 (UTC) (F)     (DEG/KT/KT) (MB)    (FT/S) (FT/D)
BUOY 51001       1820   72 75   30/ 14/ 17 1017.1
BUOY 51101       1750   73 76   30/ 16/ 17 1017.3R   6/16   3/160
BUOY 51100       NOT AVBL
BUOY 51002       1820   77 78   70/ 10/ 14 1015.6
BUOY 51003       1750   78 79   60/  8/ 12 1015.5R   5/16   5/160
BUOY 51004       1750      78   90/ 10/ 12 1015.6R   6/16   5/190
BARBERS PT BUOY  NOT AVBL
WAIMEA BAY BUOY  1802      78                N/A     5/ 8   2/260
KAILUA BAY BUOY  1804      79                N/A     4/ 8   2/140
LANAI BUOY       NOT AVBL
BARBERS PT 2     NOT AVBL
PAUWELA MAUI     1809      79                N/A     4/ 8   2/ 20
HILO             NOT AVBL
KANEOHE BAY BUOY 1825      79                N/A     4/ 7
HANALEI KAUAI    1822      79                N/A     5/ 7   2/ 10
KAHULUI HARBOR   1806   75 79  310/  5/  6 1016.2
HONOLULU HARBOR  1806   75 79  310/  2/  3 1016.9
KILO NALU        NOT AVBL
HILO HARBOR      1806   75 78  330/  2/  2 1016.2
MOKUOLOE         1736   75 80   CALM  /  1 1016.1R
NAWILIWILI       1806   71 80  260/  4/  4 1016.1
WHOTS BUOY       NOT AVBL
BUOY 51028       NOT AVBL
$$

......................KEY........................................
  SKY/WX - SKY CONDITIONS/PRESENT WEATHER
  TMP    - TEMPERATURE IN FAHRENHEIT
  DWPT   - DEWPOINT IN FAHRENHEIT
  RH     - RELATIVE HUMIDITY IN PERCENT
  WIND   - DIRECTION AND SPEED /MPH FOR ISLANDS...KTS FOR BUOYS/
  PRES   - MEAN SEA LEVEL PRESSURE IN INCHES OF HG
  VSB    - VISIBILITY IN MILES
  HX     - HEAT INDEX
  WCI    - WIND CHILL INDEX
  VRB    - VARIABLE WIND DIRECTION
  N/A    - NOT AVAILABLE




USA.gov is the U.S. government's official web portal to all federal, state and local government web resources and services.